Lewis Run, PA

11:40 AM EST on February 27, 2017 (GMT -0500)
Bradford Regional

Weather History for KBFD - July, 2013

Change the Weather History Date:

Tuesday, July 2, 2013

  Actual Average Record
Temperature  
Mean Temperature 71 °F 65 °F  
Max Temperature 81 °F 77 °F 90 °F (1966)
Min Temperature 61 °F 53 °F 35 °F (1957)
Degree Days  
Heating Degree Days 0 0  
Month to date heating degree days 0 1  
Since 1 June heating degree days 104 146  
Since 1 July heating degree days 0 1  
Cooling Degree Days 6 2  
Month to date cooling degree days 6 4  
Year to date cooling degree days 99 54  
Since 1 June cooling degree days 56 44  
Growing Degree Days 20 (Base 50)    
Moisture  
Dew Point 63 °F    
Average Humidity 74    
Maximum Humidity 93    
Minimum Humidity 54    
Precipitation  
Precipitation 0.41 in 0.13 in 1.30 in (1987)
Month to date precipitation 0.79 0.27  
Year to date precipitation 9.19 21.92  
Sea Level Pressure  
Sea Level Pressure 30.07 in    
Wind  
Wind Speed 5 mph (SE)    
Max Wind Speed 17 mph    
Max Gust Speed 25 mph    
Visibility 6 miles    
Events Fog , Rain    
T = Trace of Precipitation, MM = Missing Value Source: NWS Daily Summary

Daily Weather History Graph

Daily Weather History Graph

Search for Another Location

Airport or City:

Trip Planner

Search our weather history database for the weather conditions in past years. The results will help you decide how hot, cold, wet, or windy it might be!

Date:

Astronomy

Jul. 02, 2013 Rise Set
Actual Time 5:44 AM EDT 8:53 PM EDT
Civil Twilight 5:10 AM EDT 9:27 PM EDT
Nautical Twilight 4:26 AM EDT 10:10 PM EDT
Astronomical Twilight 3:34 AM EDT 11:02 PM EDT
Moon 1:48 AM EDT (7/2) 4:03 PM EDT (7/2)
Length of Visible Light 16h 16m
Length of Day
15h 08m
Waning Crescent, 26% of the Moon is Illuminated
Jul 2
Waning Crescent
Jul 8
New
Jul 15
First Quarter
Jul 22
Full
Jul 29
Last Quarter

Hourly Weather History & Observations

Time (EDT) Temp. Heat Index Dew Point Humidity Pressure Visibility Wind Dir Wind Speed Gust Speed Precip Events Conditions
12:53 AM 62.1 °F - 60.1 °F 93% 30.02 in 7.0 mi East 3.5 mph - 0.05 in Rain Light Rain
1:53 AM 62.1 °F - 60.1 °F 93% 30.02 in 2.5 mi NE 5.8 mph - 0.14 in Rain Heavy Rain
2:03 AM 62.1 °F - 60.1 °F 93% 30.06 in 10.0 mi NW 5.8 mph - 0.00 in Rain Light Rain
2:23 AM 62.1 °F - 60.1 °F 93% 30.05 in 2.5 mi East 4.6 mph - 0.13 in Rain Heavy Rain
2:42 AM 63.0 °F - 61.0 °F 93% 30.04 in 3.0 mi East 8.1 mph - 0.24 in Rain Light Rain
2:53 AM 63.0 °F - 60.1 °F 90% 30.00 in 10.0 mi ESE 5.8 mph - 0.25 in Rain Light Rain
3:43 AM 62.1 °F - 59.0 °F 90% 30.03 in 10.0 mi ESE 6.9 mph - 0.00 in   Mostly Cloudy
3:53 AM 62.1 °F - 59.0 °F 90% 30.00 in 10.0 mi ESE 5.8 mph - 0.00 in   Mostly Cloudy
4:01 AM 61.0 °F - 59.0 °F 93% 30.03 in 10.0 mi ESE 6.9 mph - N/A   Mostly Cloudy
4:17 AM 61.0 °F - 59.0 °F 93% 30.02 in 10.0 mi ESE 6.9 mph - N/A   Overcast
4:53 AM 62.1 °F - 60.1 °F 93% 29.99 in 10.0 mi ESE 6.9 mph - N/A   Overcast
5:28 AM 62.1 °F - 60.1 °F 93% 30.04 in 6.0 mi ESE 4.6 mph - N/A   Overcast
5:45 AM 62.1 °F - 60.1 °F 93% 30.04 in 1.8 mi SE 4.6 mph - N/A   Overcast
5:53 AM 62.1 °F - 60.1 °F 93% 30.01 in 0.5 mi ESE 4.6 mph - N/A Fog Fog
6:04 AM 62.1 °F - 60.1 °F 93% 30.04 in 0.2 mi ESE 4.6 mph - N/A Fog Fog
6:17 AM 62.1 °F - 61.0 °F 96% 30.05 in 0.5 mi ESE 3.5 mph - N/A Fog Fog
6:30 AM 62.1 °F - 61.0 °F 96% 30.05 in 2.0 mi SE 3.5 mph - N/A   Overcast
6:40 AM 63.0 °F - 61.0 °F 93% 30.06 in 6.0 mi Calm Calm - N/A   Overcast
6:53 AM 63.0 °F - 61.0 °F 93% 30.03 in 8.0 mi Calm Calm - N/A   Overcast
7:13 AM 63.0 °F - 61.0 °F 93% 30.07 in 9.0 mi Calm Calm - N/A   Overcast
7:53 AM 64.0 °F - 62.1 °F 93% 30.05 in 10.0 mi Calm Calm - N/A   Overcast
9:01 AM 68.0 °F - 64.9 °F 90% 30.08 in 6.0 mi SSE 5.8 mph - N/A   Overcast
10:33 AM 72.0 °F - 66.0 °F 81% 30.09 in 8.0 mi Variable 6.9 mph - N/A   Overcast
10:46 AM 72.0 °F - 64.9 °F 78% 30.09 in 10.0 mi Variable 4.6 mph - N/A   Mostly Cloudy
11:53 AM 73.9 °F - 64.0 °F 71% 30.07 in 10.0 mi SSW 9.2 mph - N/A   Mostly Cloudy
12:24 PM 75.9 °F - 64.9 °F 69% 30.11 in 10.0 mi SSW 8.1 mph - N/A   Mostly Cloudy
12:53 PM 77.0 °F - 64.9 °F 66% 30.06 in 10.0 mi SSW 5.8 mph - N/A   Partly Cloudy
1:53 PM 80.1 °F 81.7 °F 64.0 °F 58% 30.05 in 10.0 mi South 5.8 mph - N/A   Scattered Clouds
2:53 PM 79.0 °F - 64.0 °F 60% 30.05 in 10.0 mi South 5.8 mph - N/A   Mostly Cloudy
3:53 PM 80.1 °F 81.5 °F 63.0 °F 56% 30.04 in 10.0 mi Variable 5.8 mph - N/A   Partly Cloudy
4:53 PM 73.0 °F - 64.0 °F 73% 30.08 in 10.0 mi SSE 8.1 mph 19.6 mph N/A   Mostly Cloudy
5:14 PM 70.0 °F - 64.9 °F 84% 30.13 in 9.0 mi SE 13.8 mph 21.9 mph 0.00 in Rain Light Rain
5:29 PM 69.1 °F - 64.9 °F 87% 30.12 in 2.0 mi SSE 9.2 mph 25.3 mph 0.03 in Rain Light Rain
5:38 PM 69.1 °F - 64.9 °F 87% 30.12 in 8.0 mi SSE 6.9 mph - 0.03 in Rain Light Rain
5:53 PM 69.1 °F - 66.0 °F 90% 30.08 in 10.0 mi SSE 4.6 mph - 0.03 in   Overcast
6:53 PM 69.1 °F - 64.9 °F 87% 30.08 in 10.0 mi SSE 5.8 mph - 0.00 in   Overcast
7:53 PM 69.1 °F - 66.0 °F 90% 30.09 in 10.0 mi SE 4.6 mph - 0.00 in   Partly Cloudy
8:53 PM 70.0 °F - 66.0 °F 87% 30.10 in 10.0 mi Calm Calm - N/A   Mostly Cloudy
9:53 PM 68.0 °F - 64.9 °F 90% 30.11 in 6.0 mi Calm Calm - N/A   Overcast
10:40 PM 66.0 °F - 64.0 °F 93% 30.15 in 1.8 mi Calm Calm - N/A   Scattered Clouds
10:47 PM 66.2 °F - 64.4 °F 94% 30.15 in 0.5 mi Calm Calm - N/A Fog Fog
10:53 PM 66.0 °F - 64.0 °F 93% 30.11 in 0.2 mi SSE 3.5 mph - N/A Fog Fog
11:00 PM 66.0 °F - 64.0 °F 93% 30.15 in 1.0 mi Calm Calm - N/A   Mist
11:03 PM 66.0 °F - 64.0 °F 93% 30.15 in 2.5 mi SSE 3.5 mph - N/A   Scattered Clouds
11:10 PM 66.0 °F - 64.9 °F 96% 30.15 in 3.0 mi SE 3.5 mph - N/A   Scattered Clouds
11:14 PM 66.0 °F - 64.0 °F 93% 30.15 in 1.5 mi Calm Calm - N/A   Scattered Clouds
11:36 PM 66.0 °F - 64.0 °F 93% 30.15 in 0.8 mi Calm Calm - N/A   Mostly Cloudy
11:53 PM 66.0 °F - 64.0 °F 93% 30.11 in 1.5 mi SE 4.6 mph - N/A   Overcast
11:59 PM 66.9 °F - 64.9 °F 93% 30.15 in 3.0 mi SE 4.6 mph - N/A   Overcast